| time (UTC) | temp F | wind direction | speed MPH | gust MPH | rain 1hr in | rain 24hr in | rain mn in | humidity % | barometer mb |
| 20260904011018 | 59 | 220 | 0.0 | 3.0 | 0.00 | 0.24 | 0.24 | 81 | 1009.6 |
| 20260904010527 | 59 | 0 | 0.0 | 3.0 | 0.00 | 0.24 | 0.24 | 81 | 1009.6 |
| 20260904010037 | 59 | 0 | 0.0 | 3.0 | 0.00 | 0.24 | 0.24 | 82 | 1009.6 |
| 20260904005520 | 59 | 0 | 0.0 | 2.0 | 0.00 | 0.24 | 0.24 | 82 | 1009.5 |
| 20260904005020 | 59 | 273 | 0.0 | 2.0 | 0.00 | 0.24 | 0.24 | 84 | 1009.6 |
| 20260904004540 | 59 | 0 | 0.0 | 2.0 | 0.00 | 0.24 | 0.24 | 85 | 1009.7 |
| 20260904004023 | 59 | 53 | 0.0 | 2.0 | 0.00 | 0.24 | 0.24 | 85 | 1009.7 |
| 20260904003526 | 59 | 54 | 0.0 | 2.0 | 0.00 | 0.24 | 0.24 | 84 | 1009.7 |
| 20260904003038 | 59 | 36 | 0.0 | 2.0 | 0.00 | 0.24 | 0.24 | 84 | 1009.7 |
| 20260904002521 | 59 | 0 | 0.0 | 1.0 | 0.00 | 0.24 | 0.24 | 84 | 1009.7 |
| 20260904002024 | 59 | 0 | 0.0 | 1.0 | 0.00 | 0.24 | 0.24 | 84 | 1009.8 |
| 20260904001537 | 59 | 0 | 0.0 | 1.0 | 0.00 | 0.24 | 0.24 | 83 | 1009.8 |
| 20260904001018 | 60 | 0 | 0.0 | 8.0 | 0.00 | 0.24 | 0.24 | 83 | 1009.8 |
| 20260904000521 | 60 | 235 | 0.0 | 8.0 | 0.00 | 0.24 | 0.24 | 82 | 1009.8 |
| 20260904000055 | 60 | 226 | 1.0 | 3.0 | 0.00 | 0.24 | 0.24 | 83 | 1009.8 |
| 20260903235523 | 60 | 180 | 0.0 | 2.0 | 0.00 | 0.24 | 0.24 | 85 | 1009.8 |
| 20260903235016 | 60 | 0 | 0.0 | 2.0 | 0.00 | 0.24 | 0.24 | 83 | 1009.9 |
| 20260903234539 | 60 | 0 | 0.0 | 4.0 | 0.00 | 0.24 | 0.24 | 84 | 1009.9 |
| 20260903234018 | 60 | 0 | 0.0 | 4.0 | 0.00 | 0.24 | 0.24 | 84 | 1009.9 |
| 20260903233529 | 60 | 0 | 0.0 | 3.0 | 0.00 | 0.24 | 0.24 | 84 | 1010.0 |
| 20260903233053 | 60 | 54 | 0.0 | 2.0 | 0.00 | 0.24 | 0.24 | 84 | 1009.9 |
| 20260903232516 | 60 | 0 | 0.0 | 4.0 | 0.00 | 0.24 | 0.24 | 84 | 1009.9 |
| 20260903232019 | 60 | 262 | 0.0 | 4.0 | 0.00 | 0.24 | 0.24 | 84 | 1009.9 |
| 20260903231537 | 60 | 221 | 2.0 | 4.0 | 0.00 | 0.24 | 0.24 | 83 | 1009.9 |
| 20260903231020 | 60 | 0 | 0.0 | 3.0 | 0.00 | 0.24 | 0.24 | 85 | 1009.9 |
| 20260903230520 | 60 | 265 | 0.0 | 3.0 | 0.00 | 0.24 | 0.24 | 84 | 1010.0 |
| 20260903230051 | 60 | 0 | 0.0 | 2.0 | 0.01 | 0.24 | 0.24 | 85 | 1009.9 |
| 20260903225521 | 59 | 225 | 0.0 | 5.0 | 0.01 | 0.24 | 0.24 | 84 | 1010.0 |
| 20260903225020 | 59 | 240 | 2.0 | 5.0 | 0.01 | 0.24 | 0.24 | 84 | 1010.0 |
| 20260903224543 | 59 | 207 | 1.0 | 8.0 | 0.02 | 0.24 | 0.24 | 85 | 1009.9 |
| 20260903224020 | 59 | 115 | 1.0 | 8.0 | 0.03 | 0.24 | 0.24 | 86 | 1009.9 |
| 20260903223521 | 59 | 0 | 0.0 | 6.0 | 0.04 | 0.24 | 0.24 | 87 | 1009.9 |
| 20260903223100 | 58 | 0 | 1.0 | 6.0 | 0.04 | 0.24 | 0.24 | 87 | 1009.9 |
| 20260903222518 | 58 | 0 | 0.0 | 6.0 | 0.04 | 0.24 | 0.24 | 87 | 1009.9 |
| 20260903222023 | 58 | 0 | 1.0 | 6.0 | 0.05 | 0.24 | 0.24 | 86 | 1009.9 |
| 20260903221537 | 58 | 240 | 2.0 | 6.0 | 0.05 | 0.24 | 0.24 | 86 | 1009.9 |
| 20260903221020 | 58 | 0 | 0.0 | 2.0 | 0.05 | 0.24 | 0.24 | 86 | 1010.0 |
| 20260903220520 | 58 | 0 | 0.0 | 2.0 | 0.05 | 0.24 | 0.24 | 86 | 1010.1 |
| 20260903220038 | 58 | 113 | 0.0 | 2.0 | 0.04 | 0.23 | 0.23 | 86 | 1010.1 |
| 20260903215521 | 58 | 0 | 0.0 | 3.0 | 0.04 | 0.25 | 0.23 | 86 | 1010.1 |
| 20260903215021 | 59 | 230 | 1.0 | 3.0 | 0.04 | 0.25 | 0.23 | 84 | 1010.0 |
| 20260903214547 | 59 | 0 | 0.0 | 2.0 | 0.03 | 0.24 | 0.22 | 84 | 1009.9 |
| 20260903214021 | 59 | 209 | 0.0 | 2.0 | 0.01 | 0.22 | 0.20 | 84 | 1010.0 |
| 20260903213516 | 59 | 209 | 0.0 | 2.0 | 0.01 | 0.22 | 0.20 | 83 | 1009.9 |
| 20260903213048 | 60 | 0 | 0.0 | 2.0 | 0.01 | 0.22 | 0.20 | 83 | 1009.9 |
| 20260903212518 | 60 | 221 | 0.0 | 3.0 | 0.01 | 0.22 | 0.20 | 82 | 1009.8 |
| 20260903212020 | 60 | 0 | 0.0 | 6.0 | 0.00 | 0.21 | 0.19 | 82 | 1009.8 |
| 20260903211541 | 60 | 227 | 0.0 | 6.0 | 0.00 | 0.21 | 0.19 | 79 | 1009.8 |
| 20260903211022 | 61 | 190 | 1.0 | 4.0 | 0.00 | 0.21 | 0.19 | 78 | 1009.8 |
| 20260903210522 | 61 | 223 | 1.0 | 5.0 | 0.00 | 0.21 | 0.19 | 78 | 1009.7 |
| 20260903210057 | 61 | 188 | 1.0 | 5.0 | 0.00 | 0.21 | 0.19 | 78 | 1009.7 |
| 20260903205520 | 61 | 233 | 2.0 | 5.0 | 0.00 | 0.27 | 0.19 | 80 | 1009.6 |
| 20260903205019 | 61 | 241 | 0.0 | 2.0 | 0.00 | 0.27 | 0.19 | 80 | 1009.4 |
| 20260903204544 | 61 | 0 | 0.0 | 3.0 | 0.00 | 0.27 | 0.19 | 80 | 1009.4 |
| 20260903204019 | 61 | 239 | 1.0 | 4.0 | 0.00 | 0.27 | 0.19 | 81 | 1009.5 |
| 20260903203518 | 61 | 231 | 2.0 | 4.0 | 0.00 | 0.27 | 0.19 | 80 | 1009.5 |
| 20260903203038 | 61 | 0 | 0.0 | 3.0 | 0.00 | 0.27 | 0.19 | 80 | 1009.4 |
| 20260903202524 | 61 | 213 | 0.0 | 4.0 | 0.00 | 0.27 | 0.19 | 80 | 1009.4 |
| 20260903202021 | 61 | 121 | 0.0 | 4.0 | 0.00 | 0.27 | 0.19 | 80 | 1009.4 |
| 20260903201535 | 60 | 0 | 1.0 | 3.0 | 0.00 | 0.27 | 0.19 | 80 | 1009.5 |
| 20260903201020 | 60 | 0 | 0.0 | 3.0 | 0.00 | 0.27 | 0.19 | 82 | 1009.5 |
| 20260903200518 | 60 | 225 | 0.0 | 7.0 | 0.00 | 0.27 | 0.19 | 82 | 1009.5 |
| 20260903200035 | 60 | 0 | 1.0 | 7.0 | 0.00 | 0.27 | 0.19 | 81 | 1009.6 |
| 20260903195520 | 60 | 225 | 1.0 | 5.0 | 0.00 | 0.30 | 0.19 | 82 | 1009.6 |
| 20260903195020 | 60 | 50 | 0.0 | 4.0 | 0.00 | 0.30 | 0.19 | 83 | 1009.5 |
| 20260903194545 | 60 | 259 | 0.0 | 6.0 | 0.00 | 0.30 | 0.19 | 83 | 1009.5 |
| 20260903194017 | 60 | 194 | 2.0 | 6.0 | 0.00 | 0.30 | 0.19 | 82 | 1009.5 |
| 20260903193527 | 60 | 0 | 0.0 | 2.0 | 0.00 | 0.30 | 0.19 | 84 | 1009.4 |
| 20260903193041 | 60 | 0 | 0.0 | 4.0 | 0.00 | 0.30 | 0.19 | 82 | 1009.4 |
| 20260903192521 | 60 | 0 | 1.0 | 4.0 | 0.00 | 0.30 | 0.19 | 84 | 1009.4 |
| 20260903192020 | 60 | 61 | 1.0 | 3.0 | 0.00 | 0.30 | 0.19 | 84 | 1009.4 |
| 20260903191536 | 60 | 302 | 0.0 | 3.0 | 0.00 | 0.30 | 0.19 | 85 | 1009.4 |
| 20260903191022 | 60 | 225 | 1.0 | 9.0 | 0.00 | 0.30 | 0.19 | 85 | 1009.4 |
| 20260903190521 | 59 | 248 | 1.0 | 9.0 | 0.00 | 0.30 | 0.19 | 85 | 1009.5 |
| 20260903190037 | 59 | 76 | 1.0 | 3.0 | 0.00 | 0.30 | 0.19 | 86 | 1009.4 |
| 20260903185518 | 59 | 220 | 0.0 | 8.0 | 0.00 | 0.30 | 0.19 | 87 | 1009.5 |
| 20260903185027 | 59 | 0 | 0.0 | 8.0 | 0.00 | 0.30 | 0.19 | 86 | 1009.4 |
| 20260903184548 | 59 | 212 | 2.0 | 10.0 | 0.00 | 0.30 | 0.19 | 86 | 1009.4 |
| 20260903184022 | 59 | 343 | 1.0 | 10.0 | 0.00 | 0.30 | 0.19 | 87 | 1009.4 |
| 20260903183520 | 59 | 0 | 1.0 | 3.0 | 0.00 | 0.30 | 0.19 | 88 | 1009.5 |
| 20260903183039 | 59 | 165 | 0.0 | 10.0 | 0.00 | 0.30 | 0.19 | 88 | 1009.4 |
| 20260903182521 | 58 | 168 | 2.0 | 10.0 | 0.00 | 0.30 | 0.19 | 87 | 1009.3 |
| 20260903182021 | 58 | 183 | 1.0 | 8.0 | 0.00 | 0.30 | 0.19 | 88 | 1009.3 |
| 20260903181538 | 58 | 0 | 2.0 | 7.0 | 0.00 | 0.30 | 0.19 | 88 | 1009.3 |
| 20260903181024 | 58 | 0 | 0.0 | 4.0 | 0.00 | 0.30 | 0.19 | 88 | 1009.3 |
| 20260903180522 | 58 | 165 | 0.0 | 4.0 | 0.00 | 0.30 | 0.19 | 88 | 1009.3 |
| 20260903180037 | 58 | 199 | 2.0 | 4.0 | 0.00 | 0.30 | 0.19 | 88 | 1009.3 |
| 20260903175517 | 57 | 0 | 0.0 | 3.0 | 0.00 | 0.30 | 0.19 | 89 | 1009.3 |
| 20260903175020 | 57 | 0 | 0.0 | 3.0 | 0.00 | 0.30 | 0.19 | 89 | 1009.2 |
| 20260903174537 | 57 | 0 | 0.0 | 3.0 | 0.00 | 0.30 | 0.19 | 89 | 1009.1 |
| 20260903174021 | 57 | 205 | 0.0 | 2.0 | 0.00 | 0.30 | 0.19 | 89 | 1009.1 |
| 20260903173524 | 57 | 0 | 0.0 | 3.0 | 0.00 | 0.30 | 0.19 | 89 | 1009.1 |
| 20260903173037 | 57 | 0 | 0.0 | 4.0 | 0.00 | 0.30 | 0.19 | 89 | 1009.1 |
| 20260903172521 | 57 | 234 | 0.0 | 4.0 | 0.00 | 0.30 | 0.19 | 89 | 1009.0 |
| 20260903172018 | 57 | 0 | 0.0 | 4.0 | 0.00 | 0.30 | 0.19 | 90 | 1009.0 |
| 20260903171537 | 57 | 0 | 0.0 | 3.0 | 0.00 | 0.30 | 0.19 | 90 | 1009.0 |
| 20260903171020 | 57 | 285 | 0.0 | 7.0 | 0.00 | 0.30 | 0.19 | 90 | 1008.9 |
| 20260903170517 | 56 | 256 | 0.0 | 7.0 | 0.00 | 0.30 | 0.19 | 90 | 1008.9 |
| 20260903170036 | 57 | 248 | 1.0 | 4.0 | 0.00 | 0.30 | 0.19 | 90 | 1008.9 |
| 20260903165521 | 57 | 246 | 0.0 | 4.0 | 0.00 | 0.30 | 0.19 | 90 | 1008.9 |
| 20260903165020 | 56 | 0 | 0.0 | 5.0 | 0.00 | 0.30 | 0.19 | 90 | 1008.9 |
| 20260903164541 | 56 | 165 | 0.0 | 5.0 | 0.00 | 0.30 | 0.19 | 90 | 1009.0 |
| 20260903164019 | 56 | 244 | 1.0 | 5.0 | 0.00 | 0.30 | 0.19 | 90 | 1008.9 |
| 20260903163517 | 56 | 253 | 0.0 | 2.0 | 0.00 | 0.30 | 0.19 | 90 | 1008.8 |
| 20260903163043 | 56 | 0 | 1.0 | 2.0 | 0.00 | 0.30 | 0.19 | 90 | 1008.8 |
| 20260903162527 | 56 | 0 | 0.0 | 2.0 | 0.00 | 0.30 | 0.19 | 90 | 1008.8 |
| 20260903162021 | 56 | 254 | 0.0 | 2.0 | 0.01 | 0.30 | 0.19 | 90 | 1008.8 |
| 20260903161538 | 56 | 0 | 0.0 | 2.0 | 0.01 | 0.30 | 0.19 | 90 | 1008.9 |
| 20260903161022 | 55 | 0 | 0.0 | 2.0 | 0.02 | 0.30 | 0.19 | 90 | 1008.9 |
| 20260903160520 | 55 | 238 | 0.0 | 2.0 | 0.02 | 0.30 | 0.19 | 90 | 1009.0 |
| 20260903160043 | 55 | 0 | 0.0 | 3.0 | 0.02 | 0.30 | 0.19 | 90 | 1008.9 |
| 20260903155521 | 55 | 226 | 0.0 | 3.0 | 0.02 | 0.30 | 0.19 | 90 | 1008.9 |
| 20260903155016 | 55 | 241 | 0.0 | 2.0 | 0.02 | 0.30 | 0.19 | 90 | 1008.9 |
| 20260903154538 | 55 | 236 | 0.0 | 2.0 | 0.02 | 0.30 | 0.19 | 90 | 1008.8 |
| 20260903154024 | 55 | 0 | 0.0 | 2.0 | 0.02 | 0.30 | 0.19 | 90 | 1008.8 |
| 20260903153518 | 55 | 230 | 1.0 | 2.0 | 0.02 | 0.30 | 0.19 | 90 | 1008.9 |
| 20260903153038 | 55 | 0 | 0.0 | 2.0 | 0.02 | 0.30 | 0.19 | 90 | 1008.8 |
| 20260903152521 | 55 | 232 | 0.0 | 2.0 | 0.01 | 0.29 | 0.18 | 90 | 1008.8 |
| 20260903152027 | 54 | 0 | 0.0 | 2.0 | 0.01 | 0.29 | 0.18 | 90 | 1008.8 |
| 20260903151536 | 54 | 0 | 0.0 | 1.0 | 0.01 | 0.29 | 0.18 | 90 | 1008.8 |
| 20260903151020 | 54 | 0 | 0.0 | 1.0 | 0.01 | 0.28 | 0.17 | 90 | 1008.8 |
| 20260903150521 | 54 | 0 | 0.0 | 1.0 | 0.01 | 0.28 | 0.17 | 90 | 1008.7 |
| 20260903150051 | 54 | 0 | 0.0 | 1.0 | 0.01 | 0.28 | 0.17 | 90 | 1008.7 |
| 20260903145520 | 54 | 0 | 0.0 | 0.0 | 0.01 | 0.28 | 0.17 | 90 | 1008.6 |
| 20260903145021 | 54 | 0 | 0.0 | 1.0 | 0.01 | 0.28 | 0.17 | 90 | 1008.5 |
| 20260903144539 | 54 | 0 | 0.0 | 2.0 | 0.01 | 0.28 | 0.17 | 90 | 1008.5 |
| 20260903144019 | 54 | 232 | 0.0 | 2.0 | 0.02 | 0.28 | 0.17 | 90 | 1008.5 |
| 20260903143526 | 54 | 200 | 0.0 | 2.0 | 0.02 | 0.28 | 0.17 | 90 | 1008.5 |
| 20260903143036 | 54 | 0 | 0.0 | 2.0 | 0.02 | 0.28 | 0.17 | 90 | 1008.5 |
| 20260903142521 | 54 | 0 | 0.0 | 2.0 | 0.03 | 0.28 | 0.17 | 90 | 1008.3 |
| 20260903142021 | 54 | 0 | 0.0 | 2.0 | 0.03 | 0.28 | 0.17 | 90 | 1008.2 |
| 20260903141541 | 54 | 137 | 0.0 | 4.0 | 0.03 | 0.28 | 0.17 | 90 | 1008.3 |
| 20260903141018 | 54 | 0 | 0.0 | 4.0 | 0.02 | 0.27 | 0.16 | 90 | 1008.3 |
| 20260903140523 | 54 | 20 | 0.0 | 2.0 | 0.02 | 0.27 | 0.16 | 90 | 1008.2 |
| 20260903140042 | 54 | 22 | 0.0 | 2.0 | 0.02 | 0.27 | 0.16 | 90 | 1008.3 |
| 20260903135520 | 54 | 213 | 0.0 | 2.0 | 0.02 | 0.27 | 0.16 | 90 | 1008.2 |
| 20260903135020 | 54 | 0 | 0.0 | 2.0 | 0.03 | 0.27 | 0.16 | 90 | 1008.2 |
| 20260903134544 | 54 | 0 | 0.0 | 2.0 | 0.03 | 0.27 | 0.16 | 90 | 1008.2 |
| 20260903134019 | 54 | 0 | 0.0 | 2.0 | 0.02 | 0.26 | 0.15 | 90 | 1008.1 |
| 20260903133521 | 54 | 262 | 0.0 | 1.0 | 0.02 | 0.26 | 0.15 | 90 | 1008.0 |
| 20260903133038 | 54 | 0 | 0.0 | 1.0 | 0.03 | 0.26 | 0.15 | 90 | 1008.1 |
| 20260903132520 | 54 | 0 | 0.0 | 1.0 | 0.02 | 0.25 | 0.14 | 90 | 1008.0 |
| 20260903132017 | 54 | 0 | 0.0 | 5.0 | 0.02 | 0.25 | 0.14 | 90 | 1007.9 |
| 20260903131536 | 54 | 0 | 0.0 | 5.0 | 0.02 | 0.25 | 0.14 | 90 | 1007.9 |
| 20260903131022 | 54 | 227 | 1.0 | 5.0 | 0.02 | 0.25 | 0.14 | 90 | 1007.9 |
| 20260903130521 | 54 | 0 | 0.0 | 2.0 | 0.02 | 0.25 | 0.14 | 90 | 1007.8 |
| 20260903130042 | 54 | 209 | 0.0 | 3.0 | 0.02 | 0.25 | 0.14 | 90 | 1007.8 |
| 20260903125520 | 54 | 243 | 0.0 | 3.0 | 0.02 | 0.25 | 0.14 | 90 | 1007.8 |
| 20260903125019 | 54 | 326 | 0.0 | 2.0 | 0.02 | 0.24 | 0.13 | 90 | 1007.6 |
| 20260903124541 | 54 | 0 | 0.0 | 2.0 | 0.02 | 0.24 | 0.13 | 90 | 1007.7 |
| 20260903124020 | 54 | 0 | 0.0 | 2.0 | 0.03 | 0.24 | 0.13 | 90 | 1007.6 |
| 20260903123521 | 54 | 27 | 0.0 | 2.0 | 0.02 | 0.23 | 0.12 | 90 | 1007.6 |
| 20260903123042 | 54 | 19 | 0.0 | 2.0 | 0.03 | 0.23 | 0.12 | 90 | 1007.5 |
| 20260903122520 | 54 | 0 | 0.0 | 5.0 | 0.03 | 0.23 | 0.12 | 90 | 1007.7 |
| 20260903122021 | 54 | 0 | 0.0 | 5.0 | 0.03 | 0.23 | 0.12 | 90 | 1007.7 |
| 20260903121552 | 54 | 240 | 0.0 | 4.0 | 0.04 | 0.23 | 0.12 | 90 | 1007.6 |
| 20260903121020 | 54 | 262 | 0.0 | 4.0 | 0.04 | 0.23 | 0.12 | 89 | 1007.6 |
| 20260903120518 | 54 | 0 | 0.0 | 2.0 | 0.04 | 0.23 | 0.12 | 90 | 1007.6 |
| 20260903120038 | 54 | 0 | 0.0 | 3.0 | 0.05 | 0.23 | 0.12 | 90 | 1007.7 |
| 20260903115516 | 54 | 228 | 0.0 | 3.0 | 0.05 | 0.22 | 0.11 | 90 | 1007.6 |
| 20260903115018 | 54 | 247 | 0.0 | 1.0 | 0.05 | 0.22 | 0.11 | 90 | 1007.6 |
| 20260903114538 | 54 | 248 | 0.0 | 2.0 | 0.05 | 0.22 | 0.11 | 90 | 1007.6 |
| 20260903114020 | 54 | 0 | 0.0 | 2.0 | 0.05 | 0.21 | 0.10 | 90 | 1007.7 |
| 20260903113520 | 54 | 0 | 0.0 | 2.0 | 0.05 | 0.21 | 0.10 | 90 | 1007.6 |
| 20260903113038 | 53 | 0 | 0.0 | 1.0 | 0.05 | 0.20 | 0.09 | 89 | 1007.6 |
| 20260903112525 | 53 | 0 | 0.0 | 0.0 | 0.05 | 0.20 | 0.09 | 89 | 1007.6 |
| 20260903112021 | 53 | 0 | 0.0 | 0.0 | 0.04 | 0.19 | 0.08 | 89 | 1007.6 |
| 20260903111541 | 53 | 0 | 0.0 | 0.0 | 0.05 | 0.19 | 0.08 | 89 | 1007.6 |
| 20260903111017 | 53 | 0 | 0.0 | 0.0 | 0.05 | 0.19 | 0.08 | 89 | 1007.5 |
| 20260903110519 | 53 | 0 | 0.0 | 0.0 | 0.05 | 0.19 | 0.08 | 89 | 1007.6 |
| 20260903110035 | 53 | 0 | 0.0 | 0.0 | 0.04 | 0.18 | 0.07 | 89 | 1007.6 |
| 20260903105523 | 53 | 0 | 0.0 | 0.0 | 0.03 | 0.17 | 0.06 | 89 | 1007.6 |
| 20260903105021 | 53 | 0 | 0.0 | 0.0 | 0.03 | 0.17 | 0.06 | 89 | 1007.6 |
| 20260903104549 | 53 | 0 | 0.0 | 0.0 | 0.02 | 0.16 | 0.05 | 89 | 1007.7 |
| 20260903104020 | 53 | 0 | 0.0 | 0.0 | 0.02 | 0.16 | 0.05 | 89 | 1007.5 |
| 20260903103520 | 53 | 0 | 0.0 | 0.0 | 0.01 | 0.15 | 0.04 | 89 | 1007.6 |
| 20260903103039 | 53 | 0 | 0.0 | 0.0 | 0.01 | 0.15 | 0.04 | 89 | 1007.6 |
| 20260903102520 | 52 | 0 | 0.0 | 0.0 | 0.01 | 0.15 | 0.04 | 89 | 1007.6 |
| 20260903102022 | 52 | 0 | 0.0 | 0.0 | 0.00 | 0.14 | 0.03 | 89 | 1007.6 |
| 20260903101547 | 52 | 0 | 0.0 | 0.0 | 0.00 | 0.14 | 0.03 | 89 | 1007.5 |
| 20260903101019 | 52 | 0 | 0.0 | 0.0 | 0.00 | 0.14 | 0.03 | 89 | 1007.5 |
| 20260903100517 | 52 | 0 | 0.0 | 0.0 | 0.00 | 0.14 | 0.03 | 89 | 1007.5 |
| 20260903100042 | 52 | 0 | 0.0 | 0.0 | 0.00 | 0.14 | 0.03 | 89 | 1007.4 |
| 20260903095520 | 52 | 0 | 0.0 | 0.0 | 0.00 | 0.14 | 0.03 | 89 | 1007.3 |
| 20260903095024 | 52 | 0 | 0.0 | 0.0 | 0.00 | 0.14 | 0.03 | 89 | 1007.3 |
| 20260903094536 | 52 | 0 | 0.0 | 0.0 | 0.00 | 0.14 | 0.03 | 89 | 1007.4 |
| 20260903094021 | 52 | 0 | 0.0 | 0.0 | 0.00 | 0.14 | 0.03 | 89 | 1007.4 |
| 20260903093527 | 52 | 0 | 0.0 | 0.0 | 0.00 | 0.14 | 0.03 | 89 | 1007.3 |
| 20260903093038 | 52 | 0 | 0.0 | 0.0 | 0.00 | 0.14 | 0.03 | 89 | 1007.4 |
| 20260903092520 | 52 | 0 | 0.0 | 0.0 | 0.00 | 0.14 | 0.03 | 89 | 1007.4 |
| 20260903092021 | 52 | 0 | 0.0 | 0.0 | 0.00 | 0.14 | 0.03 | 89 | 1007.5 |
| 20260903091551 | 52 | 0 | 0.0 | 0.0 | 0.00 | 0.14 | 0.03 | 89 | 1007.5 |
| 20260903091019 | 52 | 0 | 0.0 | 0.0 | 0.00 | 0.14 | 0.03 | 89 | 1007.5 |
| 20260903090516 | 52 | 0 | 0.0 | 0.0 | 0.00 | 0.14 | 0.03 | 89 | 1007.5 |
| 20260903090036 | 52 | 0 | 0.0 | 0.0 | 0.00 | 0.14 | 0.03 | 89 | 1007.5 |
| 20260903085532 | 52 | 0 | 0.0 | 0.0 | 0.00 | 0.14 | 0.03 | 89 | 1007.6 |
| 20260903085018 | 52 | 0 | 0.0 | 0.0 | 0.00 | 0.14 | 0.03 | 89 | 1007.6 |
| 20260903084537 | 52 | 0 | 0.0 | 0.0 | 0.00 | 0.14 | 0.03 | 89 | 1007.4 |
| 20260903084023 | 52 | 0 | 0.0 | 0.0 | 0.00 | 0.14 | 0.03 | 89 | 1007.5 |
| 20260903083518 | 52 | 0 | 0.0 | 0.0 | 0.00 | 0.14 | 0.03 | 89 | 1007.5 |
| 20260903083037 | 52 | 0 | 0.0 | 0.0 | 0.01 | 0.14 | 0.03 | 89 | 1007.5 |
| 20260903082518 | 52 | 0 | 0.0 | 0.0 | 0.02 | 0.14 | 0.03 | 89 | 1007.5 |
| 20260903082018 | 52 | 0 | 0.0 | 0.0 | 0.02 | 0.14 | 0.03 | 89 | 1007.4 |
| 20260903081539 | 52 | 0 | 0.0 | 0.0 | 0.02 | 0.14 | 0.03 | 89 | 1007.5 |
| 20260903081020 | 52 | 0 | 0.0 | 0.0 | 0.03 | 0.14 | 0.03 | 89 | 1007.5 |
| 20260903080522 | 52 | 0 | 0.0 | 0.0 | 0.03 | 0.14 | 0.03 | 89 | 1007.5 |
| 20260903080042 | 52 | 0 | 0.0 | 0.0 | 0.03 | 0.14 | 0.03 | 89 | 1007.5 |
| 20260903075524 | 52 | 0 | 0.0 | 0.0 | 0.03 | 0.14 | 0.03 | 89 | 1007.4 |
| 20260903075020 | 52 | 0 | 0.0 | 0.0 | 0.03 | 0.14 | 0.03 | 89 | 1007.5 |
| 20260903074540 | 52 | 0 | 0.0 | 0.0 | 0.03 | 0.14 | 0.03 | 89 | 1007.5 |
| 20260903074017 | 52 | 0 | 0.0 | 0.0 | 0.03 | 0.14 | 0.03 | 89 | 1007.4 |
| 20260903073516 | 51 | 0 | 0.0 | 0.0 | 0.03 | 0.14 | 0.03 | 89 | 1007.4 |
| 20260903073039 | 51 | 0 | 0.0 | 0.0 | 0.02 | 0.13 | 0.02 | 89 | 1007.4 |
| 20260903072518 | 51 | 0 | 0.0 | 0.0 | 0.01 | 0.12 | 0.01 | 89 | 1007.4 |
| 20260903072021 | 51 | 0 | 0.0 | 0.0 | 0.01 | 0.12 | 0.01 | 89 | 1007.4 |
| 20260903071537 | 51 | 0 | 0.0 | 0.0 | 0.01 | 0.12 | 0.01 | 89 | 1007.4 |
| 20260903071022 | 51 | 0 | 0.0 | 0.0 | 0.00 | 0.11 | 0.00 | 89 | 1007.3 |
| 20260903070520 | 51 | 0 | 0.0 | 0.0 | 0.00 | 0.11 | 0.00 | 89 | 1007.3 |
| 20260903070037 | 51 | 0 | 0.0 | 0.0 | 0.00 | 0.11 | 0.00 | 89 | 1007.2 |
| 20260903065521 | 51 | 0 | 0.0 | 0.0 | 0.00 | 0.11 | 0.11 | 89 | 1007.4 |
| 20260903065021 | 51 | 0 | 0.0 | 0.0 | 0.00 | 0.11 | 0.11 | 89 | 1007.2 |
| 20260903064536 | 51 | 0 | 0.0 | 0.0 | 0.00 | 0.11 | 0.11 | 88 | 1007.2 |
| 20260903064024 | 51 | 0 | 0.0 | 0.0 | 0.00 | 0.11 | 0.11 | 88 | 1007.3 |
| 20260903063521 | 51 | 0 | 0.0 | 0.0 | 0.00 | 0.11 | 0.11 | 88 | 1007.3 |
| 20260903063036 | 51 | 0 | 0.0 | 0.0 | 0.00 | 0.11 | 0.11 | 88 | 1007.2 |
| 20260903062518 | 51 | 0 | 0.0 | 0.0 | 0.00 | 0.11 | 0.11 | 88 | 1007.3 |
| 20260903062021 | 51 | 0 | 0.0 | 0.0 | 0.00 | 0.11 | 0.11 | 88 | 1007.3 |
| 20260903061537 | 51 | 0 | 0.0 | 0.0 | 0.00 | 0.11 | 0.11 | 88 | 1007.3 |
| 20260903061024 | 51 | 0 | 0.0 | 0.0 | 0.00 | 0.11 | 0.11 | 88 | 1007.3 |
| 20260903060521 | 51 | 0 | 0.0 | 0.0 | 0.00 | 0.11 | 0.11 | 88 | 1007.3 |
| 20260903060056 | 51 | 0 | 0.0 | 0.0 | 0.00 | 0.11 | 0.11 | 88 | 1007.3 |
| 20260903055521 | 51 | 0 | 0.0 | 0.0 | 0.00 | 0.11 | 0.11 | 88 | 1007.3 |
| 20260903055020 | 51 | 0 | 0.0 | 0.0 | 0.00 | 0.11 | 0.11 | 88 | 1007.3 |
| 20260903054536 | 51 | 0 | 0.0 | 0.0 | 0.00 | 0.11 | 0.11 | 88 | 1007.3 |
| 20260903054021 | 51 | 0 | 0.0 | 0.0 | 0.00 | 0.11 | 0.11 | 88 | 1007.3 |
| 20260903053521 | 51 | 0 | 0.0 | 0.0 | 0.00 | 0.11 | 0.11 | 88 | 1007.3 |
| 20260903053038 | 51 | 0 | 0.0 | 0.0 | 0.00 | 0.11 | 0.11 | 87 | 1007.3 |
| 20260903052521 | 51 | 0 | 0.0 | 0.0 | 0.00 | 0.11 | 0.11 | 87 | 1007.2 |
| 20260903052017 | 52 | 0 | 0.0 | 0.0 | 0.00 | 0.11 | 0.11 | 87 | 1007.2 |
| 20260903051540 | 52 | 0 | 0.0 | 0.0 | 0.00 | 0.11 | 0.11 | 87 | 1007.3 |
| 20260903051021 | 52 | 0 | 0.0 | 0.0 | 0.00 | 0.11 | 0.11 | 87 | 1007.1 |
| 20260903050521 | 52 | 0 | 0.0 | 0.0 | 0.00 | 0.11 | 0.11 | 86 | 1007.2 |
| 20260903050044 | 52 | 0 | 0.0 | 0.0 | 0.00 | 0.11 | 0.11 | 86 | 1007.2 |
| 20260903045520 | 53 | 0 | 0.0 | 0.0 | 0.00 | 0.11 | 0.11 | 86 | 1007.3 |
| 20260903045023 | 53 | 0 | 0.0 | 0.0 | 0.00 | 0.11 | 0.11 | 86 | 1007.2 |
| 20260903044538 | 53 | 0 | 0.0 | 0.0 | 0.00 | 0.11 | 0.11 | 86 | 1007.2 |
| 20260903044026 | 53 | 0 | 0.0 | 0.0 | 0.00 | 0.11 | 0.11 | 86 | 1007.1 |
| 20260903043520 | 53 | 0 | 0.0 | 0.0 | 0.00 | 0.11 | 0.11 | 86 | 1007.0 |
| 20260903043036 | 53 | 0 | 0.0 | 0.0 | 0.00 | 0.11 | 0.11 | 86 | 1007.0 |
| 20260903042520 | 54 | 0 | 0.0 | 0.0 | 0.00 | 0.11 | 0.11 | 85 | 1007.0 |
| 20260903042020 | 54 | 0 | 0.0 | 0.0 | 0.00 | 0.11 | 0.11 | 85 | 1007.0 |
| 20260903041539 | 54 | 0 | 0.0 | 0.0 | 0.00 | 0.11 | 0.11 | 85 | 1007.0 |
| 20260903041021 | 54 | 0 | 0.0 | 2.0 | 0.00 | 0.11 | 0.11 | 84 | 1006.9 |
| 20260903040518 | 54 | 0 | 0.0 | 2.0 | 0.00 | 0.11 | 0.11 | 84 | 1007.0 |
| 20260903040038 | 55 | 0 | 0.0 | 2.0 | 0.00 | 0.11 | 0.11 | 84 | 1006.8 |
| 20260903035518 | 55 | 0 | 0.0 | 0.0 | 0.00 | 0.11 | 0.11 | 83 | 1006.9 |
| 20260903035020 | 55 | 0 | 0.0 | 0.0 | 0.00 | 0.11 | 0.11 | 83 | 1006.9 |
| 20260903034538 | 56 | 0 | 0.0 | 0.0 | 0.00 | 0.11 | 0.11 | 83 | 1006.8 |
| 20260903034025 | 56 | 0 | 0.0 | 0.0 | 0.00 | 0.11 | 0.11 | 82 | 1006.8 |
| 20260903033517 | 56 | 0 | 0.0 | 0.0 | 0.00 | 0.11 | 0.11 | 82 | 1006.7 |
| 20260903033043 | 56 | 0 | 0.0 | 0.0 | 0.00 | 0.11 | 0.11 | 82 | 1006.5 |
| 20260903032524 | 57 | 0 | 0.0 | 0.0 | 0.00 | 0.11 | 0.11 | 82 | 1006.5 |
| 20260903032020 | 57 | 0 | 0.0 | 0.0 | 0.00 | 0.11 | 0.11 | 81 | 1006.5 |
| 20260903031541 | 57 | 0 | 0.0 | 2.0 | 0.00 | 0.11 | 0.11 | 80 | 1006.4 |
| 20260903031021 | 57 | 0 | 0.0 | 2.0 | 0.00 | 0.11 | 0.11 | 80 | 1006.4 |
| 20260903030521 | 57 | 0 | 0.0 | 0.0 | 0.00 | 0.11 | 0.11 | 80 | 1006.4 |
| 20260903030047 | 58 | 0 | 0.0 | 0.0 | 0.00 | 0.11 | 0.11 | 80 | 1006.2 |
| 20260903025520 | 58 | 0 | 0.0 | 2.0 | 0.00 | 0.11 | 0.11 | 79 | 1006.1 |
| 20260903025020 | 58 | 0 | 0.0 | 2.0 | 0.00 | 0.11 | 0.11 | 79 | 1006.1 |
| 20260903024538 | 58 | 0 | 0.0 | 5.0 | 0.00 | 0.11 | 0.11 | 79 | 1006.0 |
| 20260903024020 | 58 | 241 | 1.0 | 4.0 | 0.00 | 0.11 | 0.11 | 79 | 1006.0 |
| 20260903023528 | 59 | 264 | 0.0 | 3.0 | 0.00 | 0.11 | 0.11 | 79 | 1005.9 |
| 20260903023041 | 59 | 0 | 0.0 | 5.0 | 0.00 | 0.11 | 0.11 | 78 | 1005.9 |
| 20260903022517 | 59 | 239 | 1.0 | 5.0 | 0.00 | 0.11 | 0.11 | 78 | 1005.7 |
| 20260903022020 | 60 | 0 | 1.0 | 4.0 | 0.00 | 0.11 | 0.11 | 78 | 1005.7 |
| 20260903021546 | 60 | 0 | 0.0 | 3.0 | 0.00 | 0.11 | 0.11 | 78 | 1005.6 |
| 20260903021021 | 60 | 228 | 1.0 | 3.0 | 0.00 | 0.11 | 0.11 | 77 | 1005.7 |
| 20260903020521 | 60 | 226 | 1.0 | 10.0 | 0.00 | 0.11 | 0.11 | 78 | 1005.7 |
| 20260903020037 | 60 | 183 | 1.0 | 10.0 | 0.00 | 0.11 | 0.11 | 77 | 1005.7 |
| 20260903015521 | 60 | 219 | 1.0 | 8.0 | 0.00 | 0.11 | 0.11 | 78 | 1005.7 |
| 20260903015020 | 60 | 0 | 0.0 | 8.0 | 0.00 | 0.11 | 0.11 | 78 | 1005.6 |
| 20260903014542 | 60 | 224 | 0.0 | 7.0 | 0.00 | 0.11 | 0.11 | 78 | 1005.7 |
| 20260903014025 | 60 | 209 | 2.0 | 7.0 | 0.00 | 0.11 | 0.11 | 78 | 1005.7 |
| 20260903013527 | 61 | 0 | 0.0 | 5.0 | 0.00 | 0.11 | 0.11 | 78 | 1005.7 |
| 20260903013041 | 61 | 236 | 0.0 | 5.0 | 0.00 | 0.11 | 0.11 | 78 | 1005.6 |
| 20260903012522 | 61 | 207 | 0.0 | 7.0 | 0.00 | 0.11 | 0.11 | 78 | 1005.6 |
| 20260903012019 | 61 | 0 | 0.0 | 7.0 | 0.00 | 0.11 | 0.11 | 78 | 1005.6 |
| 20260903011551 | 61 | 237 | 2.0 | 5.0 | 0.00 | 0.11 | 0.11 | 77 | 1005.4 |